Location: Tel Aviv
(32.0670°N, 34.7670°E)
Time: 04:15:01
(UTC+03:00)

Vanguard 2 - Pass Details

Date: 25 January 2022
Orbit: 552 x 2935 km, 32.9° (Epoch: 25 May)

Event Time Altitude Azimuth Distance (km) Brightness Sun altitude
Rises 23:18:03 0° 280° (W) 5,086 - -74.5°
Reaches altitude 10° 23:20:55 10° 280° (W) 4,360 - -74.9°
Maximum altitude 23:34:01 85° 193° (SSW) 2,613 - -76.0°
Drops below altitude 10° 23:52:04 10° 108° (ESE) 5,760 - -76.7°
Exits shadow 23:55:56 - 108° (ESE) 6,605 12.2 -76.7°
Sets 23:56:30 0° 108° (ESE) 6,729 12.3 -76.7°
